パンスターズ彗星

C/2021 G3 ( PanSTARRS )

English version
Home page
Updated on June 27, 2021

---------------------------------------------------------------------

・ プロフィール

発見日 2021年4月1日
発見光度 22.1等
発見者 Pan-STARRS 1 telescope (Haleakala)

・ 軌道要素

Epoch 2021 Nov. 2.0 TT = JDT 2459520.5                                          
T 2021 Oct. 18.62372 TT                                 Rudenko                 
q   5.1811370            (2000.0)            P               Q                  
z  -0.0002128      Peri.   10.65009     -0.80592481     +0.27372234             
 +/-0.0000303      Node   147.41877     +0.44574176     -0.30299001             
e   1.0011026      Incl.  102.88305     +0.38961452     +0.91283796             
From 44 observations 2021 Feb. 9-May 13, mean residual 0".3.                    

・ 光度変化

        m1 = 11.0 + 5 logΔ + 10.0 log r

---------------------------------------------------------------------

軌道要素はM.P.E.C. 2021-M86に掲載されたものです。
光度グラフはComet for Windowsで作成したものです。

---------------------------------------------------------------------

Copyright(C) Seiichi Yoshida (comet@aerith.net). All rights reserved.